Weather History for Racine, WI

Change the Weather History Date:

Saturday, March 9, 2013

  Actual Average Record
Temperature  
Mean Temperature 34 °F -  
Max Temperature 37 °F 42 °F 71 °F (1987)
Min Temperature 32 °F 25 °F 1 °F (2003)
Degree Days  
Heating Degree Days 30    
Moisture  
Dew Point 29 °F    
Average Humidity 80    
Maximum Humidity 89    
Minimum Humidity 75    
Precipitation  
Precipitation 0.02 in - - ()
Sea Level Pressure  
Sea Level Pressure 30.10 in    
Wind  
Wind Speed 12 mph (SSE)    
Max Wind Speed 17 mph    
Max Gust Speed 24 mph    
Visibility 8 miles    
Events Rain    
Averages and records for this station are not official NWS values.
T = Trace of Precipitation, MM = Missing Value Source: NWS Daily Summary

Daily Weather History Graph

Daily Weather History Graph

Search for Another Location

Airport:

Trip Planner

Search our weather history database for the weather conditions in past years. The results will help you decide how hot, cold, wet, or windy it might be!

Date:

Astronomy

Mar. 09, 2013 Rise Set
Actual Time 6:13 AM CST 5:50 PM CST
Civil Twilight 5:45 AM CST 6:19 PM CST
Nautical Twilight 5:12 AM CST 6:51 PM CST
Astronomical Twilight 4:39 AM CST 7:24 PM CST
Moon 4:39 AM CST (3/9) 3:50 PM CST (3/9)
Length of Visible Light 12h 34m
Length of Day
11h 37m
Waning Crescent, 5% of the Moon is Illuminated
Mar 9
Waning Crescent
Mar 11
New
Mar 19
First Quarter
Mar 27
Full
Apr 2
Last Quarter

Hourly Weather History & Observations

Time (CST) Temp. Windchill Dew Point Humidity Pressure Visibility Wind Dir Wind Speed Gust Speed Precip Events Conditions
12:53 AM 34.0 °F 27.2 °F 27.0 °F 75% 30.33 in 10.0 mi SSE 8.1 mph - N/A   Clear
1:53 AM 33.1 °F 24.4 °F 26.1 °F 75% 30.31 in 9.0 mi SSE 11.5 mph - N/A   Clear
2:53 AM 33.1 °F 24.9 °F 26.1 °F 75% 30.28 in 9.0 mi SSE 10.4 mph - N/A   Clear
3:53 AM 32.0 °F 23.0 °F 26.1 °F 79% 30.27 in 9.0 mi SSE 11.5 mph - N/A   Clear
4:53 AM 33.1 °F 24.4 °F 26.1 °F 75% 30.26 in 8.0 mi South 11.5 mph - N/A   Clear
5:53 AM 33.1 °F 24.9 °F 26.1 °F 75% 30.27 in 9.0 mi South 10.4 mph - N/A   Scattered Clouds
6:53 AM 33.1 °F 23.9 °F 27.0 °F 78% 30.25 in 6.0 mi SSE 12.7 mph 20.7 mph N/A   Haze
7:53 AM 34.0 °F 25.5 °F 27.0 °F 75% 30.25 in 6.0 mi South 11.5 mph - N/A   Haze
8:53 AM 33.1 °F 24.9 °F 28.9 °F 85% 30.23 in 5.0 mi SSE 10.4 mph - 0.02 in Rain Light Rain
9:53 AM 33.1 °F 23.4 °F 30.0 °F 89% 30.19 in 5.0 mi SSE 13.8 mph - 0.00 in Rain Light Rain
10:53 AM 35.1 °F 24.8 °F 30.0 °F 82% 30.14 in 6.0 mi SE 17.3 mph 21.9 mph N/A   Haze
11:53 AM 36.0 °F 26.3 °F 30.0 °F 79% 30.12 in 9.0 mi South 16.1 mph 23.0 mph N/A   Overcast
12:53 PM 36.0 °F 26.0 °F 30.0 °F 79% 30.09 in 9.0 mi South 17.3 mph 24.2 mph N/A   Overcast
1:53 PM 36.0 °F 27.5 °F 30.0 °F 79% 30.06 in 9.0 mi SSE 12.7 mph 21.9 mph N/A   Mostly Cloudy
2:53 PM 36.0 °F 27.5 °F 30.0 °F 79% 30.02 in 8.0 mi SSE 12.7 mph 20.7 mph N/A   Overcast
3:53 PM 37.0 °F 28.1 °F 30.0 °F 76% 30.00 in 9.0 mi SSE 15.0 mph - N/A   Overcast
4:53 PM 37.0 °F 29.3 °F 30.0 °F 76% 29.98 in 9.0 mi SSE 11.5 mph 20.7 mph N/A   Overcast
5:53 PM 37.0 °F 27.7 °F 30.9 °F 79% 29.96 in 10.0 mi SSE 16.1 mph 21.9 mph 0.00 in   Overcast
6:53 PM 37.0 °F 28.1 °F 32.0 °F 82% 29.94 in 10.0 mi SSE 15.0 mph 21.9 mph N/A   Overcast
7:53 PM 37.0 °F 28.9 °F 32.0 °F 82% 29.92 in 10.0 mi SSE 12.7 mph - N/A   Partly Cloudy
8:53 PM 37.0 °F 28.5 °F 32.0 °F 82% 29.92 in 10.0 mi South 13.8 mph - N/A   Mostly Cloudy
9:53 PM 37.0 °F 30.4 °F 33.1 °F 86% 29.91 in 10.0 mi South 9.2 mph - N/A   Overcast
10:53 PM 37.0 °F 31.0 °F 33.1 °F 86% 29.89 in 10.0 mi South 8.1 mph - N/A   Overcast
11:53 PM 37.0 °F 32.4 °F 33.1 °F 86% 29.87 in 9.0 mi SE 5.8 mph - N/A   Overcast